Time,TemperatureF,DewpointF,PressureIn,WindDirection,WindDirectionDegrees,WindSpeedMPH,WindSpeedGustMPH,Humidity,HourlyPrecipIn,Conditions,Clouds,dailyrainin,SoftwareType,DateUTC
2013-11-02 00:00:00,50.8,41.0,30.03,NW,315,0.0,0.0,69,0.00,,---,0.00,VWS V14.00,2013-11-02 05:00:00,
2013-11-02 00:05:00,50.6,41.2,30.03,NW,315,0.0,0.0,70,0.00,,---,0.00,VWS V14.00,2013-11-02 05:05:00,
2013-11-02 00:10:00,50.4,41.0,30.03,NW,315,0.0,2.0,70,0.00,,---,0.00,VWS V14.00,2013-11-02 05:10:00,
2013-11-02 00:15:00,50.1,40.7,30.03,NW,315,1.0,3.0,70,0.00,,---,0.00,VWS V14.00,2013-11-02 05:15:00,
2013-11-02 00:20:00,49.9,40.9,30.03,NW,315,0.0,0.0,71,0.00,,---,0.00,VWS V14.00,2013-11-02 05:20:00,
2013-11-02 00:25:00,49.8,40.8,30.03,NW,315,0.0,0.0,71,0.00,,---,0.00,VWS V14.00,2013-11-02 05:25:00,
2013-11-02 00:30:00,49.7,40.7,30.03,NW,315,0.0,0.0,71,0.00,,---,0.00,VWS V14.00,2013-11-02 05:30:00,
2013-11-02 00:35:00,49.6,41.0,30.03,NW,315,0.0,0.0,72,0.00,,---,0.00,VWS V14.00,2013-11-02 05:35:00,
2013-11-02 00:40:00,49.4,40.8,30.03,NW,315,0.0,0.0,72,0.00,,---,0.00,VWS V14.00,2013-11-02 05:40:00,
2013-11-02 00:45:00,49.3,40.7,30.03,NW,315,1.0,3.0,72,0.00,,---,0.00,VWS V14.00,2013-11-02 05:45:00,
2013-11-02 00:50:00,49.2,40.6,30.03,NW,315,2.0,4.0,72,0.00,,---,0.00,VWS V14.00,2013-11-02 05:50:00,
2013-11-02 00:55:00,49.1,40.5,30.03,NW,315,0.0,2.0,72,0.00,,---,0.00,VWS V14.00,2013-11-02 05:55:00,
2013-11-02 01:00:00,48.9,40.3,30.03,NW,315,0.0,0.0,72,0.00,,---,0.00,VWS V14.00,2013-11-02 06:00:00,
2013-11-02 01:05:00,48.7,40.1,30.03,NW,315,1.0,3.0,72,0.00,,---,0.00,VWS V14.00,2013-11-02 06:05:00,
2013-11-02 01:10:00,48.5,40.2,30.03,NW,315,2.0,4.0,73,0.00,,---,0.00,VWS V14.00,2013-11-02 06:10:00,
2013-11-02 01:15:00,48.4,40.2,30.03,NW,315,2.0,4.0,73,0.00,,---,0.00,VWS V14.00,2013-11-02 06:15:00,
2013-11-02 01:20:00,48.3,40.1,30.03,NW,315,2.0,3.0,73,0.00,,---,0.00,VWS V14.00,2013-11-02 06:20:00,
2013-11-02 01:25:00,48.2,40.0,30.03,NW,315,1.0,3.0,73,0.00,,---,0.00,VWS V14.00,2013-11-02 06:25:00,
2013-11-02 01:30:00,48.1,39.9,30.03,NW,315,0.0,0.0,73,0.00,,---,0.00,VWS V14.00,2013-11-02 06:30:00,
2013-11-02 01:35:00,48.0,39.8,30.03,NW,315,0.0,0.0,73,0.00,,---,0.00,VWS V14.00,2013-11-02 06:35:00,
2013-11-02 01:40:00,47.8,39.9,30.04,NW,315,0.0,0.0,74,0.00,,---,0.00,VWS V14.00,2013-11-02 06:40:00,
2013-11-02 01:45:00,47.7,39.8,30.04,NW,315,0.0,0.0,74,0.00,,---,0.00,VWS V14.00,2013-11-02 06:45:00,
2013-11-02 01:50:00,47.5,39.6,30.04,NW,315,0.0,0.0,74,0.00,,---,0.00,VWS V14.00,2013-11-02 06:50:00,
2013-11-02 01:55:00,47.4,39.5,30.04,NW,315,0.0,0.0,74,0.00,,---,0.00,VWS V14.00,2013-11-02 06:55:00,
2013-11-02 02:00:00,47.2,39.7,30.04,NW,315,0.0,0.0,75,0.00,,---,0.00,VWS V14.00,2013-11-02 07:00:00,
2013-11-02 02:05:00,47.1,39.6,30.04,NW,315,0.0,0.0,75,0.00,,---,0.00,VWS V14.00,2013-11-02 07:05:00,
2013-11-02 02:10:00,46.9,39.4,30.04,NW,315,2.0,5.0,75,0.00,,---,0.00,VWS V14.00,2013-11-02 07:10:00,
2013-11-02 02:15:00,46.9,39.7,30.05,NW,315,3.0,7.0,76,0.00,,---,0.00,VWS V14.00,2013-11-02 07:15:00,
2013-11-02 02:20:00,47.0,39.8,30.05,NW,315,5.0,11.0,76,0.00,,---,0.00,VWS V14.00,2013-11-02 07:20:00,
2013-11-02 02:25:00,47.4,40.6,30.04,NW,315,6.0,12.0,77,0.00,,---,0.00,VWS V14.00,2013-11-02 07:25:00,
2013-11-02 02:30:00,47.8,40.6,30.05,NW,315,5.0,8.0,76,0.00,,---,0.00,VWS V14.00,2013-11-02 07:30:00,
2013-11-02 02:35:00,48.1,40.6,30.05,NW,315,4.0,9.0,75,0.00,,---,0.00,VWS V14.00,2013-11-02 07:35:00,
2013-11-02 02:40:00,48.4,40.5,30.05,NW,315,4.0,6.0,74,0.00,,---,0.00,VWS V14.00,2013-11-02 07:40:00,
2013-11-02 02:45:00,48.5,40.6,30.06,NW,315,4.0,6.0,74,0.00,,---,0.00,VWS V14.00,2013-11-02 07:45:00,
2013-11-02 02:50:00,48.5,40.2,30.06,NW,315,3.0,6.0,73,0.00,,---,0.00,VWS V14.00,2013-11-02 07:50:00,
2013-11-02 02:55:00,48.5,40.2,30.06,NW,315,4.0,7.0,73,0.00,,---,0.00,VWS V14.00,2013-11-02 07:55:00,
2013-11-02 03:00:00,48.3,40.1,30.07,NW,315,4.0,7.0,73,0.00,,---,0.00,VWS V14.00,2013-11-02 08:00:00,
2013-11-02 03:05:00,48.2,40.3,30.07,NW,315,5.0,7.0,74,0.00,,---,0.00,VWS V14.00,2013-11-02 08:05:00,
2013-11-02 03:10:00,48.1,40.2,30.07,NW,315,5.0,7.0,74,0.00,,---,0.00,VWS V14.00,2013-11-02 08:10:00,
2013-11-02 03:15:00,47.9,40.0,30.07,NW,315,4.0,7.0,74,0.00,,---,0.00,VWS V14.00,2013-11-02 08:15:00,
2013-11-02 03:20:00,47.8,39.9,30.08,NW,315,4.0,8.0,74,0.00,,---,0.00,VWS V14.00,2013-11-02 08:20:00,
2013-11-02 03:25:00,47.6,39.7,30.08,NW,315,4.0,6.0,74,0.00,,---,0.00,VWS V14.00,2013-11-02 08:25:00,
2013-11-02 03:30:00,47.4,39.9,30.08,NW,315,4.0,6.0,75,0.00,,---,0.00,VWS V14.00,2013-11-02 08:30:00,
2013-11-02 03:35:00,47.3,39.8,30.08,NW,315,3.0,5.0,75,0.00,,---,0.00,VWS V14.00,2013-11-02 08:35:00,
2013-11-02 03:40:00,47.1,39.6,30.08,NW,315,3.0,4.0,75,0.00,,---,0.00,VWS V14.00,2013-11-02 08:40:00,
2013-11-02 03:45:00,46.9,39.4,30.09,NW,315,3.0,5.0,75,0.00,,---,0.00,VWS V14.00,2013-11-02 08:45:00,
2013-11-02 03:50:00,46.7,39.2,30.09,NW,315,3.0,5.0,75,0.00,,---,0.00,VWS V14.00,2013-11-02 08:50:00,
2013-11-02 03:55:00,46.6,39.1,30.09,NW,315,3.0,5.0,75,0.00,,---,0.00,VWS V14.00,2013-11-02 08:55:00,
2013-11-02 04:00:00,46.5,39.0,30.09,NW,315,3.0,6.0,75,0.00,,---,0.00,VWS V14.00,2013-11-02 09:00:00,
2013-11-02 04:05:00,46.4,39.3,30.09,NW,315,3.0,6.0,76,0.00,,---,0.00,VWS V14.00,2013-11-02 09:05:00,
2013-11-02 04:10:00,46.3,39.2,30.09,NW,315,3.0,6.0,76,0.00,,---,0.00,VWS V14.00,2013-11-02 09:10:00,
2013-11-02 04:15:00,46.3,39.2,30.09,NW,315,2.0,4.0,76,0.00,,---,0.00,VWS V14.00,2013-11-02 09:15:00,
2013-11-02 04:20:00,46.3,39.2,30.09,NW,315,1.0,5.0,76,0.00,,---,0.00,VWS V14.00,2013-11-02 09:20:00,
2013-11-02 04:25:00,46.2,39.1,30.09,NW,315,0.0,3.0,76,0.00,,---,0.00,VWS V14.00,2013-11-02 09:25:00,
2013-11-02 04:30:00,46.1,39.0,30.09,NW,315,0.0,0.0,76,0.00,,---,0.00,VWS V14.00,2013-11-02 09:30:00,
2013-11-02 04:35:00,46.1,38.6,30.09,NW,315,0.0,0.0,75,0.00,,---,0.00,VWS V14.00,2013-11-02 09:35:00,
2013-11-02 04:40:00,45.9,38.4,30.09,NW,315,0.0,0.0,75,0.00,,---,0.00,VWS V14.00,2013-11-02 09:40:00,
2013-11-02 04:45:00,45.7,38.2,30.10,NW,315,0.0,3.0,75,0.00,,---,0.00,VWS V14.00,2013-11-02 09:45:00,
2013-11-02 04:50:00,45.4,38.3,30.10,NW,315,0.0,4.0,76,0.00,,---,0.00,VWS V14.00,2013-11-02 09:50:00,
2013-11-02 04:55:00,45.2,38.1,30.10,NW,315,0.0,0.0,76,0.00,,---,0.00,VWS V14.00,2013-11-02 09:55:00,
2013-11-02 05:00:00,45.0,37.9,30.10,NW,315,0.0,0.0,76,0.00,,---,0.00,VWS V14.00,2013-11-02 10:00:00,
2013-11-02 05:05:00,44.8,37.7,30.10,NW,315,0.0,2.0,76,0.00,,---,0.00,VWS V14.00,2013-11-02 10:05:00,
2013-11-02 05:10:00,44.5,37.4,30.10,NW,315,0.0,3.0,76,0.00,,---,0.00,VWS V14.00,2013-11-02 10:10:00,
2013-11-02 05:15:00,44.2,37.5,30.10,NW,315,0.0,0.0,77,0.00,,---,0.00,VWS V14.00,2013-11-02 10:15:00,
2013-11-02 05:20:00,44.0,37.6,30.10,NW,315,0.0,0.0,78,0.00,,---,0.00,VWS V14.00,2013-11-02 10:20:00,
2013-11-02 05:25:00,43.9,37.5,30.10,NW,315,0.0,3.0,78,0.00,,---,0.00,VWS V14.00,2013-11-02 10:25:00,
2013-11-02 05:30:00,43.8,37.4,30.10,NW,315,0.0,0.0,78,0.00,,---,0.00,VWS V14.00,2013-11-02 10:30:00,
2013-11-02 05:35:00,43.8,37.4,30.11,NW,315,0.0,0.0,78,0.00,,---,0.00,VWS V14.00,2013-11-02 10:35:00,
2013-11-02 05:40:00,43.6,37.2,30.11,NW,315,0.0,0.0,78,0.00,,---,0.00,VWS V14.00,2013-11-02 10:40:00,
2013-11-02 05:45:00,43.4,37.0,30.12,NW,315,0.0,0.0,78,0.00,,---,0.00,VWS V14.00,2013-11-02 10:45:00,
2013-11-02 05:50:00,43.2,36.8,30.12,NW,315,0.0,0.0,78,0.00,,---,0.00,VWS V14.00,2013-11-02 10:50:00,
2013-11-02 05:55:00,43.1,37.0,30.12,NW,315,0.0,0.0,79,0.00,,---,0.00,VWS V14.00,2013-11-02 10:55:00,
2013-11-02 06:00:00,43.0,36.9,30.12,NW,315,0.0,0.0,79,0.00,,---,0.00,VWS V14.00,2013-11-02 11:00:00,
2013-11-02 06:05:00,42.9,36.8,30.12,NW,315,0.0,0.0,79,0.00,,---,0.00,VWS V14.00,2013-11-02 11:05:00,
2013-11-02 06:10:00,42.9,36.8,30.12,NW,315,0.0,0.0,79,0.00,,---,0.00,VWS V14.00,2013-11-02 11:10:00,
2013-11-02 06:15:00,42.8,36.8,30.12,NW,315,0.0,0.0,79,0.00,,---,0.00,VWS V14.00,2013-11-02 11:15:00,
2013-11-02 06:20:00,42.7,36.7,30.12,NW,315,1.0,4.0,79,0.00,,---,0.00,VWS V14.00,2013-11-02 11:20:00,
2013-11-02 06:25:00,42.6,36.5,30.12,NW,315,2.0,4.0,79,0.00,,---,0.00,VWS V14.00,2013-11-02 11:25:00,
2013-11-02 06:30:00,42.6,36.5,30.12,NW,315,2.0,4.0,79,0.00,,---,0.00,VWS V14.00,2013-11-02 11:30:00,
2013-11-02 06:35:00,42.5,36.5,30.13,NW,315,1.0,3.0,79,0.00,,---,0.00,VWS V14.00,2013-11-02 11:35:00,
2013-11-02 06:40:00,42.5,36.5,30.12,NW,315,0.0,0.0,79,0.00,,---,0.00,VWS V14.00,2013-11-02 11:40:00,
2013-11-02 06:45:00,42.4,36.4,30.12,NW,315,0.0,2.0,79,0.00,,---,0.00,VWS V14.00,2013-11-02 11:45:00,
2013-11-02 06:50:00,42.3,36.3,30.13,NW,315,0.0,0.0,79,0.00,,---,0.00,VWS V14.00,2013-11-02 11:50:00,
2013-11-02 06:55:00,42.2,36.2,30.13,NW,315,0.0,0.0,79,0.00,,---,0.00,VWS V14.00,2013-11-02 11:55:00,
2013-11-02 07:00:00,42.0,36.0,30.14,NW,315,0.0,0.0,79,0.00,,---,0.00,VWS V14.00,2013-11-02 12:00:00,
2013-11-02 07:05:00,41.8,35.8,30.14,NW,315,0.0,0.0,79,0.00,,---,0.00,VWS V14.00,2013-11-02 12:05:00,
2013-11-02 07:10:00,41.6,35.6,30.15,NW,315,0.0,0.0,79,0.00,,---,0.00,VWS V14.00,2013-11-02 12:10:00,
2013-11-02 07:15:00,41.4,35.4,30.15,NW,315,0.0,0.0,79,0.00,,---,0.00,VWS V14.00,2013-11-02 12:15:00,
2013-11-02 07:20:00,41.2,35.2,30.15,NW,315,0.0,0.0,79,0.00,,---,0.00,VWS V14.00,2013-11-02 12:20:00,
2013-11-02 07:25:00,41.1,35.1,30.15,NW,315,0.0,0.0,79,0.00,,---,0.00,VWS V14.00,2013-11-02 12:25:00,
2013-11-02 07:30:00,40.9,35.2,30.15,NW,315,0.0,2.0,80,0.00,,---,0.00,VWS V14.00,2013-11-02 12:30:00,
2013-11-02 07:35:00,40.8,35.4,30.15,NW,315,0.0,3.0,81,0.00,,---,0.00,VWS V14.00,2013-11-02 12:35:00,
2013-11-02 07:40:00,40.8,35.4,30.15,NW,315,1.0,3.0,81,0.00,,---,0.00,VWS V14.00,2013-11-02 12:40:00,
2013-11-02 07:45:00,40.8,35.4,30.16,NW,315,1.0,3.0,81,0.00,,---,0.00,VWS V14.00,2013-11-02 12:45:00,
2013-11-02 07:50:00,40.8,35.4,30.16,NW,315,2.0,4.0,81,0.00,,---,0.00,VWS V14.00,2013-11-02 12:50:00,
2013-11-02 07:55:00,40.7,35.3,30.16,NW,315,1.0,3.0,81,0.00,,---,0.00,VWS V14.00,2013-11-02 12:55:00,
2013-11-02 08:00:00,40.6,35.5,30.17,NW,315,0.0,0.0,82,0.00,,---,0.00,VWS V14.00,2013-11-02 13:00:00,
2013-11-02 08:05:00,40.5,35.5,30.17,NW,315,1.0,5.0,82,0.00,,---,0.00,VWS V14.00,2013-11-02 13:05:00,
2013-11-02 08:10:00,40.5,35.5,30.17,NW,315,0.0,0.0,82,0.00,,---,0.00,VWS V14.00,2013-11-02 13:10:00,
2013-11-02 08:15:00,40.4,35.3,30.17,NW,315,1.0,4.0,82,0.00,,---,0.00,VWS V14.00,2013-11-02 13:15:00,
2013-11-02 08:20:00,40.4,35.3,30.17,NW,315,1.0,3.0,82,0.00,,---,0.00,VWS V14.00,2013-11-02 13:20:00,
2013-11-02 08:25:00,40.3,35.2,30.17,NW,315,0.0,3.0,82,0.00,,---,0.00,VWS V14.00,2013-11-02 13:25:00,
2013-11-02 08:30:00,40.2,35.2,30.18,NW,315,2.0,3.0,82,0.00,,---,0.00,VWS V14.00,2013-11-02 13:30:00,
2013-11-02 08:35:00,40.2,35.2,30.18,NW,315,2.0,4.0,82,0.00,,---,0.00,VWS V14.00,2013-11-02 13:35:00,
2013-11-02 08:40:00,40.1,35.1,30.18,NW,315,4.0,6.0,82,0.00,,---,0.00,VWS V14.00,2013-11-02 13:40:00,
2013-11-02 08:45:00,39.9,34.9,30.19,NW,315,4.0,6.0,82,0.00,,---,0.00,VWS V14.00,2013-11-02 13:45:00,
2013-11-02 08:50:00,39.8,34.8,30.19,NW,315,4.0,7.0,82,0.00,,---,0.00,VWS V14.00,2013-11-02 13:50:00,
2013-11-02 08:55:00,39.8,34.8,30.19,NW,315,4.0,6.0,82,0.00,,---,0.00,VWS V14.00,2013-11-02 13:55:00,
2013-11-02 09:00:00,39.8,34.8,30.20,NW,315,4.0,6.0,82,0.00,,---,0.00,VWS V14.00,2013-11-02 14:00:00,
2013-11-02 09:05:00,39.8,35.1,30.20,WNW,292,4.0,7.0,83,0.00,,---,0.00,VWS V14.00,2013-11-02 14:05:00,
2013-11-02 09:10:00,40.0,35.3,30.20,WNW,292,4.0,7.0,83,0.00,,---,0.00,VWS V14.00,2013-11-02 14:10:00,
2013-11-02 09:15:00,40.3,35.6,30.20,WNW,292,4.0,7.0,83,0.00,,---,0.00,VWS V14.00,2013-11-02 14:15:00,
2013-11-02 09:20:00,40.6,35.5,30.20,WNW,292,5.0,9.0,82,0.00,,---,0.00,VWS V14.00,2013-11-02 14:20:00,
2013-11-02 09:25:00,41.1,36.0,30.20,WNW,292,6.0,10.0,82,0.00,,---,0.00,VWS V14.00,2013-11-02 14:25:00,
2013-11-02 09:30:00,41.6,36.2,30.20,WNW,292,7.0,11.0,81,0.00,,---,0.00,VWS V14.00,2013-11-02 14:30:00,
2013-11-02 09:35:00,42.2,36.8,30.21,WNW,292,8.0,12.0,81,0.00,,---,0.00,VWS V14.00,2013-11-02 14:35:00,
2013-11-02 09:40:00,42.7,37.0,30.21,WNW,292,8.0,12.0,80,0.00,,---,0.00,VWS V14.00,2013-11-02 14:40:00,
2013-11-02 09:45:00,43.1,37.0,30.21,WNW,292,8.0,12.0,79,0.00,,---,0.00,VWS V14.00,2013-11-02 14:45:00,
2013-11-02 09:50:00,43.4,37.0,30.21,WNW,292,8.0,12.0,78,0.00,,---,0.00,VWS V14.00,2013-11-02 14:50:00,
2013-11-02 09:55:00,43.8,37.4,30.21,WNW,292,8.0,10.0,78,0.00,,---,0.00,VWS V14.00,2013-11-02 14:55:00,
2013-11-02 10:00:00,44.1,37.0,30.22,NW,315,10.0,14.0,76,0.00,,---,0.00,VWS V14.00,2013-11-02 15:00:00,
2013-11-02 10:05:00,44.6,37.5,30.22,NW,315,9.0,13.0,76,0.00,,---,0.00,VWS V14.00,2013-11-02 15:05:00,
2013-11-02 10:10:00,45.0,37.6,30.22,NW,315,9.0,16.0,75,0.00,,---,0.00,VWS V14.00,2013-11-02 15:10:00,
2013-11-02 10:15:00,45.3,37.5,30.22,NW,315,9.0,14.0,74,0.00,,---,0.00,VWS V14.00,2013-11-02 15:15:00,
2013-11-02 10:20:00,45.8,37.7,30.22,NW,315,8.0,14.0,73,0.00,,---,0.00,VWS V14.00,2013-11-02 15:20:00,
2013-11-02 10:25:00,46.2,38.0,30.22,NW,315,8.0,14.0,73,0.00,,---,0.00,VWS V14.00,2013-11-02 15:25:00,
2013-11-02 10:30:00,46.6,38.1,30.22,NW,315,7.0,12.0,72,0.00,,---,0.00,VWS V14.00,2013-11-02 15:30:00,
2013-11-02 10:35:00,47.1,37.8,30.22,NW,315,10.0,14.0,70,0.00,,---,0.00,VWS V14.00,2013-11-02 15:35:00,
2013-11-02 10:40:00,47.5,38.2,30.23,NW,315,9.0,15.0,70,0.00,,---,0.00,VWS V14.00,2013-11-02 15:40:00,
2013-11-02 10:45:00,47.9,37.9,30.23,NW,315,11.0,16.0,68,0.00,,---,0.00,VWS V14.00,2013-11-02 15:45:00,
2013-11-02 10:50:00,48.3,38.2,30.23,NW,315,10.0,16.0,68,0.00,,---,0.00,VWS V14.00,2013-11-02 15:50:00,
2013-11-02 10:55:00,48.8,38.3,30.23,NW,315,9.0,13.0,67,0.00,,---,0.00,VWS V14.00,2013-11-02 15:55:00,
2013-11-02 11:00:00,49.4,38.1,30.23,NW,315,9.0,14.0,65,0.00,,---,0.00,VWS V14.00,2013-11-02 16:00:00,
2013-11-02 11:05:00,49.9,38.2,30.24,NW,315,10.0,15.0,64,0.00,,---,0.00,VWS V14.00,2013-11-02 16:05:00,
2013-11-02 11:10:00,50.3,38.2,30.24,NW,315,8.0,12.0,63,0.00,,---,0.00,VWS V14.00,2013-11-02 16:10:00,
2013-11-02 11:15:00,50.8,37.8,30.24,WNW,292,10.0,15.0,61,0.00,,---,0.00,VWS V14.00,2013-11-02 16:15:00,
2013-11-02 11:20:00,51.4,38.0,30.23,NW,315,10.0,17.0,60,0.00,,---,0.00,VWS V14.00,2013-11-02 16:20:00,
2013-11-02 11:25:00,51.9,37.2,30.24,NW,315,11.0,16.0,57,0.00,,---,0.00,VWS V14.00,2013-11-02 16:25:00,
2013-11-02 11:30:00,52.3,37.5,30.24,NW,315,11.0,18.0,57,0.00,,---,0.00,VWS V14.00,2013-11-02 16:30:00,
2013-11-02 11:35:00,52.7,37.0,30.24,NW,315,12.0,21.0,55,0.00,,---,0.00,VWS V14.00,2013-11-02 16:35:00,
2013-11-02 11:40:00,53.0,36.8,30.24,NW,315,12.0,20.0,54,0.00,,---,0.00,VWS V14.00,2013-11-02 16:40:00,
2013-11-02 11:45:00,53.3,37.1,30.24,NW,315,13.0,18.0,54,0.00,,---,0.00,VWS V14.00,2013-11-02 16:45:00,
2013-11-02 11:50:00,53.7,36.0,30.24,NW,315,15.0,26.0,51,0.00,,---,0.00,VWS V14.00,2013-11-02 16:50:00,
2013-11-02 11:55:00,53.9,36.7,30.25,NW,315,14.0,21.0,52,0.00,,---,0.00,VWS V14.00,2013-11-02 16:55:00,
2013-11-02 12:00:00,54.2,36.5,30.25,NNW,338,14.0,19.0,51,0.00,,---,0.00,VWS V14.00,2013-11-02 17:00:00,
2013-11-02 12:05:00,54.5,36.8,30.25,NW,315,12.0,16.0,51,0.00,,---,0.00,VWS V14.00,2013-11-02 17:05:00,
2013-11-02 12:10:00,54.9,36.1,30.25,NW,315,14.0,20.0,49,0.00,,---,0.00,VWS V14.00,2013-11-02 17:10:00,
2013-11-02 12:15:00,55.2,35.9,30.24,NW,315,15.0,23.0,48,0.00,,---,0.00,VWS V14.00,2013-11-02 17:15:00,
2013-11-02 12:20:00,55.4,35.0,30.25,NW,315,15.0,21.0,46,0.00,,---,0.00,VWS V14.00,2013-11-02 17:20:00,
2013-11-02 12:25:00,55.5,35.6,30.25,NW,315,14.0,22.0,47,0.00,,---,0.00,VWS V14.00,2013-11-02 17:25:00,
2013-11-02 12:30:00,55.8,35.3,30.25,NW,315,14.0,21.0,46,0.00,,---,0.00,VWS V14.00,2013-11-02 17:30:00,
2013-11-02 12:35:00,56.1,35.6,30.25,NW,315,15.0,23.0,46,0.00,,---,0.00,VWS V14.00,2013-11-02 17:35:00,
2013-11-02 12:40:00,56.1,35.6,30.25,NW,315,15.0,21.0,46,0.00,,---,0.00,VWS V14.00,2013-11-02 17:40:00,
2013-11-02 12:45:00,56.1,35.6,30.25,NW,315,14.0,21.0,46,0.00,,---,0.00,VWS V14.00,2013-11-02 17:45:00,
2013-11-02 12:50:00,56.2,36.3,30.25,NNW,338,12.0,19.0,47,0.00,,---,0.00,VWS V14.00,2013-11-02 17:50:00,
2013-11-02 12:55:00,56.4,35.9,30.25,NW,315,14.0,21.0,46,0.00,,---,0.00,VWS V14.00,2013-11-02 17:55:00,
2013-11-02 13:00:00,56.5,36.0,30.25,NW,315,14.0,20.0,46,0.00,,---,0.00,VWS V14.00,2013-11-02 18:00:00,
2013-11-02 13:05:00,56.6,36.1,30.25,NW,315,12.0,19.0,46,0.00,,---,0.00,VWS V14.00,2013-11-02 18:05:00,
2013-11-02 13:10:00,56.9,36.3,30.24,NW,315,13.0,19.0,46,0.00,,---,0.00,VWS V14.00,2013-11-02 18:10:00,
2013-11-02 13:15:00,57.1,36.0,30.24,NNW,338,12.0,17.0,45,0.00,,---,0.00,VWS V14.00,2013-11-02 18:15:00,
2013-11-02 13:20:00,57.4,36.2,30.24,NW,315,12.0,18.0,45,0.00,,---,0.00,VWS V14.00,2013-11-02 18:20:00,
2013-11-02 13:25:00,57.7,35.4,30.24,NNW,338,13.0,21.0,43,0.00,,---,0.00,VWS V14.00,2013-11-02 18:25:00,
2013-11-02 13:30:00,58.0,35.7,30.24,NNW,338,12.0,19.0,43,0.00,,---,0.00,VWS V14.00,2013-11-02 18:30:00,
2013-11-02 13:35:00,58.2,35.2,30.24,North,0,13.0,19.0,42,0.00,,---,0.00,VWS V14.00,2013-11-02 18:35:00,
2013-11-02 13:40:00,58.2,35.2,30.24,NNW,338,12.0,18.0,42,0.00,,---,0.00,VWS V14.00,2013-11-02 18:40:00,
2013-11-02 13:45:00,58.6,35.0,30.24,NNW,338,11.0,16.0,41,0.00,,---,0.00,VWS V14.00,2013-11-02 18:45:00,
2013-11-02 13:50:00,59.0,35.3,30.24,NW,315,12.0,20.0,41,0.00,,---,0.00,VWS V14.00,2013-11-02 18:50:00,
2013-11-02 13:55:00,59.0,35.3,30.24,NNW,338,12.0,19.0,41,0.00,,---,0.00,VWS V14.00,2013-11-02 18:55:00,
2013-11-02 14:00:00,58.9,35.3,30.23,NNW,338,12.0,17.0,41,0.00,,---,0.00,VWS V14.00,2013-11-02 19:00:00,
2013-11-02 14:05:00,59.0,34.7,30.23,NW,315,14.0,19.0,40,0.00,,---,0.00,VWS V14.00,2013-11-02 19:05:00,
2013-11-02 14:10:00,59.0,35.3,30.23,NNW,338,11.0,20.0,41,0.00,,---,0.00,VWS V14.00,2013-11-02 19:10:00,
2013-11-02 14:15:00,59.0,35.3,30.23,NNW,338,11.0,17.0,41,0.00,,---,0.00,VWS V14.00,2013-11-02 19:15:00,
2013-11-02 14:20:00,59.2,35.5,30.22,NNW,338,12.0,19.0,41,0.00,,---,0.00,VWS V14.00,2013-11-02 19:20:00,
2013-11-02 14:25:00,59.2,35.5,30.22,NW,315,12.0,20.0,41,0.00,,---,0.00,VWS V14.00,2013-11-02 19:25:00,
2013-11-02 14:30:00,59.3,35.6,30.22,NW,315,13.0,21.0,41,0.00,,---,0.00,VWS V14.00,2013-11-02 19:30:00,
2013-11-02 14:35:00,59.5,35.2,30.22,NW,315,12.0,19.0,40,0.00,,---,0.00,VWS V14.00,2013-11-02 19:35:00,
2013-11-02 14:40:00,59.7,34.7,30.21,NW,315,13.0,21.0,39,0.00,,---,0.00,VWS V14.00,2013-11-02 19:40:00,
2013-11-02 14:45:00,59.6,35.3,30.21,NW,315,14.0,20.0,40,0.00,,---,0.00,VWS V14.00,2013-11-02 19:45:00,
2013-11-02 14:50:00,59.4,34.5,30.21,NW,315,11.0,16.0,39,0.00,,---,0.00,VWS V14.00,2013-11-02 19:50:00,
2013-11-02 14:55:00,59.4,35.7,30.21,NNW,338,12.0,20.0,41,0.00,,---,0.00,VWS V14.00,2013-11-02 19:55:00,
2013-11-02 15:00:00,59.6,34.6,30.20,NW,315,12.0,19.0,39,0.00,,---,0.00,VWS V14.00,2013-11-02 20:00:00,
2013-11-02 15:05:00,59.7,35.4,30.20,NW,315,10.0,15.0,40,0.00,,---,0.00,VWS V14.00,2013-11-02 20:05:00,
2013-11-02 15:10:00,60.1,35.1,30.20,NNW,338,10.0,16.0,39,0.00,,---,0.00,VWS V14.00,2013-11-02 20:10:00,
2013-11-02 15:15:00,60.3,35.3,30.20,NNW,338,11.0,15.0,39,0.00,,---,0.00,VWS V14.00,2013-11-02 20:15:00,
2013-11-02 15:20:00,60.5,35.4,30.19,NW,315,12.0,20.0,39,0.00,,---,0.00,VWS V14.00,2013-11-02 20:20:00,
2013-11-02 15:25:00,60.4,35.3,30.19,NNW,338,11.0,18.0,39,0.00,,---,0.00,VWS V14.00,2013-11-02 20:25:00,
2013-11-02 15:30:00,60.6,34.9,30.19,NW,315,12.0,19.0,38,0.00,,---,0.00,VWS V14.00,2013-11-02 20:30:00,
2013-11-02 15:35:00,60.7,35.0,30.19,NNW,338,10.0,17.0,38,0.00,,---,0.00,VWS V14.00,2013-11-02 20:35:00,
2013-11-02 15:40:00,60.9,35.1,30.19,NW,315,10.0,17.0,38,0.00,,---,0.00,VWS V14.00,2013-11-02 20:40:00,
2013-11-02 15:45:00,61.1,34.7,30.19,NW,315,11.0,16.0,37,0.00,,---,0.00,VWS V14.00,2013-11-02 20:45:00,
2013-11-02 15:50:00,61.0,35.2,30.18,NW,315,12.0,19.0,38,0.00,,---,0.00,VWS V14.00,2013-11-02 20:50:00,
2013-11-02 15:55:00,60.9,34.5,30.18,NW,315,9.0,18.0,37,0.00,,---,0.00,VWS V14.00,2013-11-02 20:55:00,
2013-11-02 16:00:00,61.0,35.2,30.18,WNW,292,10.0,17.0,38,0.00,,---,0.00,VWS V14.00,2013-11-02 21:00:00,
2013-11-02 16:05:00,61.2,34.7,30.18,NNW,338,13.0,20.0,37,0.00,,---,0.00,VWS V14.00,2013-11-02 21:05:00,
2013-11-02 16:10:00,61.1,35.3,30.18,NNW,338,9.0,18.0,38,0.00,,---,0.00,VWS V14.00,2013-11-02 21:10:00,
2013-11-02 16:15:00,61.1,34.7,30.18,NW,315,12.0,18.0,37,0.00,,---,0.00,VWS V14.00,2013-11-02 21:15:00,
2013-11-02 16:20:00,61.2,34.7,30.18,NW,315,12.0,17.0,37,0.00,,---,0.00,VWS V14.00,2013-11-02 21:20:00,
2013-11-02 16:25:00,61.1,34.7,30.18,NW,315,10.0,17.0,37,0.00,,---,0.00,VWS V14.00,2013-11-02 21:25:00,
2013-11-02 16:30:00,61.3,33.4,30.18,North,0,13.0,18.0,35,0.00,,---,0.00,VWS V14.00,2013-11-02 21:30:00,
2013-11-02 16:35:00,61.3,34.1,30.18,NW,315,11.0,17.0,36,0.00,,---,0.00,VWS V14.00,2013-11-02 21:35:00,
2013-11-02 16:40:00,61.4,34.2,30.18,NW,315,10.0,18.0,36,0.00,,---,0.00,VWS V14.00,2013-11-02 21:40:00,
2013-11-02 16:45:00,61.4,33.5,30.18,North,0,10.0,14.0,35,0.00,,---,0.00,VWS V14.00,2013-11-02 21:45:00,
2013-11-02 16:50:00,61.5,34.3,30.18,NNW,338,10.0,18.0,36,0.00,,---,0.00,VWS V14.00,2013-11-02 21:50:00,
2013-11-02 16:55:00,61.4,33.5,30.17,NNW,338,11.0,16.0,35,0.00,,---,0.00,VWS V14.00,2013-11-02 21:55:00,
2013-11-02 17:00:00,61.4,33.5,30.17,NNW,338,10.0,15.0,35,0.00,,---,0.00,VWS V14.00,2013-11-02 22:00:00,
2013-11-02 17:05:00,61.5,33.6,30.17,NNW,338,9.0,13.0,35,0.00,,---,0.00,VWS V14.00,2013-11-02 22:05:00,
2013-11-02 17:10:00,61.6,33.7,30.17,NNW,338,8.0,14.0,35,0.00,,---,0.00,VWS V14.00,2013-11-02 22:10:00,
2013-11-02 17:15:00,61.6,33.7,30.17,NNW,338,7.0,13.0,35,0.00,,---,0.00,VWS V14.00,2013-11-02 22:15:00,
2013-11-02 17:20:00,61.7,33.8,30.17,NNW,338,9.0,15.0,35,0.00,,---,0.00,VWS V14.00,2013-11-02 22:20:00,
2013-11-02 17:25:00,61.8,33.2,30.17,NNW,338,10.0,16.0,34,0.00,,---,0.00,VWS V14.00,2013-11-02 22:25:00,
2013-11-02 17:30:00,61.6,33.7,30.17,NNW,338,9.0,16.0,35,0.00,,---,0.00,VWS V14.00,2013-11-02 22:30:00,
2013-11-02 17:35:00,61.5,33.6,30.17,NNW,338,9.0,16.0,35,0.00,,---,0.00,VWS V14.00,2013-11-02 22:35:00,
2013-11-02 17:40:00,61.5,33.6,30.17,NNW,338,9.0,13.0,35,0.00,,---,0.00,VWS V14.00,2013-11-02 22:40:00,
2013-11-02 17:45:00,61.5,32.9,30.17,NNW,338,7.0,11.0,34,0.00,,---,0.00,VWS V14.00,2013-11-02 22:45:00,
2013-11-02 17:50:00,61.4,33.5,30.17,NNW,338,7.0,13.0,35,0.00,,---,0.00,VWS V14.00,2013-11-02 22:50:00,
2013-11-02 17:55:00,61.3,32.7,30.17,NNW,338,8.0,12.0,34,0.00,,---,0.00,VWS V14.00,2013-11-02 22:55:00,
2013-11-02 18:00:00,61.3,33.4,30.17,North,0,8.0,12.0,35,0.00,,---,0.00,VWS V14.00,2013-11-02 23:00:00,
2013-11-02 18:05:00,61.1,33.3,30.16,North,0,7.0,12.0,35,0.00,,---,0.00,VWS V14.00,2013-11-02 23:05:00,
2013-11-02 18:10:00,61.1,33.3,30.16,NNW,338,7.0,11.0,35,0.00,,---,0.00,VWS V14.00,2013-11-02 23:10:00,
2013-11-02 18:15:00,61.0,33.9,30.16,North,0,6.0,11.0,36,0.00,,---,0.00,VWS V14.00,2013-11-02 23:15:00,
2013-11-02 18:20:00,60.9,33.8,30.16,NNW,338,5.0,10.0,36,0.00,,---,0.00,VWS V14.00,2013-11-02 23:20:00,
2013-11-02 18:25:00,60.8,34.4,30.16,NNW,338,5.0,9.0,37,0.00,,---,0.00,VWS V14.00,2013-11-02 23:25:00,
2013-11-02 18:30:00,60.7,33.6,30.16,NNW,338,5.0,8.0,36,0.00,,---,0.00,VWS V14.00,2013-11-02 23:30:00,
2013-11-02 18:35:00,60.6,33.5,30.16,NNW,338,4.0,7.0,36,0.00,,---,0.00,VWS V14.00,2013-11-02 23:35:00,
2013-11-02 18:40:00,60.4,34.0,30.16,NNW,338,3.0,4.0,37,0.00,,---,0.00,VWS V14.00,2013-11-02 23:40:00,
2013-11-02 18:45:00,60.2,33.8,30.16,NNW,338,3.0,7.0,37,0.00,,---,0.00,VWS V14.00,2013-11-02 23:45:00,
2013-11-02 18:50:00,60.0,33.7,30.16,NNW,338,4.0,6.0,37,0.00,,---,0.00,VWS V14.00,2013-11-02 23:50:00,
2013-11-02 18:55:00,59.9,34.2,30.16,NNW,338,2.0,5.0,38,0.00,,---,0.00,VWS V14.00,2013-11-02 23:55:00,
2013-11-02 19:00:00,59.8,34.2,30.17,NNW,338,1.0,3.0,38,0.00,,---,0.00,VWS V14.00,2013-11-03 00:00:00,
2013-11-02 19:05:00,59.7,34.1,30.17,NNW,338,2.0,5.0,38,0.00,,---,0.00,VWS V14.00,2013-11-03 00:05:00,
2013-11-02 19:10:00,59.4,34.5,30.17,NNW,338,2.0,3.0,39,0.00,,---,0.00,VWS V14.00,2013-11-03 00:10:00,
2013-11-02 19:15:00,59.1,34.8,30.17,NNW,338,0.0,2.0,40,0.00,,---,0.00,VWS V14.00,2013-11-03 00:15:00,
2013-11-02 19:20:00,59.0,34.7,30.17,NNW,338,0.0,0.0,40,0.00,,---,0.00,VWS V14.00,2013-11-03 00:20:00,
2013-11-02 19:25:00,58.9,34.6,30.17,NNW,338,0.0,0.0,40,0.00,,---,0.00,VWS V14.00,2013-11-03 00:25:00,
2013-11-02 19:30:00,58.6,34.4,30.17,NNW,338,0.0,0.0,40,0.00,,---,0.00,VWS V14.00,2013-11-03 00:30:00,
2013-11-02 19:35:00,58.3,34.7,30.17,NNW,338,0.0,0.0,41,0.00,,---,0.00,VWS V14.00,2013-11-03 00:35:00,
2013-11-02 19:40:00,58.0,34.5,30.17,NNW,338,0.0,0.0,41,0.00,,---,0.00,VWS V14.00,2013-11-03 00:40:00,
2013-11-02 19:45:00,57.6,34.1,30.17,NNW,338,0.0,0.0,41,0.00,,---,0.00,VWS V14.00,2013-11-03 00:45:00,
2013-11-02 19:50:00,57.2,34.3,30.17,NNW,338,0.0,0.0,42,0.00,,---,0.00,VWS V14.00,2013-11-03 00:50:00,
2013-11-02 19:55:00,56.8,35.1,30.17,NNW,338,0.0,0.0,44,0.00,,---,0.00,VWS V14.00,2013-11-03 00:55:00,
2013-11-02 20:00:00,56.3,34.7,30.18,NNW,338,0.0,0.0,44,0.00,,---,0.00,VWS V14.00,2013-11-03 01:00:00,
2013-11-02 20:05:00,55.7,36.8,30.18,NNW,338,0.0,0.0,49,0.00,,---,0.00,VWS V14.00,2013-11-03 01:05:00,
2013-11-02 20:10:00,54.8,33.9,30.18,NNW,338,0.0,0.0,45,0.00,,---,0.00,VWS V14.00,2013-11-03 01:10:00,
2013-11-02 20:15:00,53.9,34.2,30.18,NNW,338,0.0,0.0,47,0.00,,---,0.00,VWS V14.00,2013-11-03 01:15:00,
2013-11-02 20:20:00,53.1,34.0,30.18,NNW,338,0.0,0.0,48,0.00,,---,0.00,VWS V14.00,2013-11-03 01:20:00,
2013-11-02 20:25:00,52.6,33.0,30.18,NNW,338,0.0,0.0,47,0.00,,---,0.00,VWS V14.00,2013-11-03 01:25:00,
2013-11-02 20:30:00,52.1,33.0,30.18,NNW,338,0.0,0.0,48,0.00,,---,0.00,VWS V14.00,2013-11-03 01:30:00,
2013-11-02 20:35:00,51.7,32.7,30.18,NNW,338,0.0,0.0,48,0.00,,---,0.00,VWS V14.00,2013-11-03 01:35:00,
2013-11-02 20:40:00,51.4,32.9,30.18,NNW,338,0.0,0.0,49,0.00,,---,0.00,VWS V14.00,2013-11-03 01:40:00,
2013-11-02 20:45:00,51.1,34.1,30.18,NNW,338,0.0,0.0,52,0.00,,---,0.00,VWS V14.00,2013-11-03 01:45:00,
2013-11-02 20:50:00,50.5,34.0,30.18,NNW,338,0.0,0.0,53,0.00,,---,0.00,VWS V14.00,2013-11-03 01:50:00,
2013-11-02 20:55:00,50.0,33.1,30.18,NNW,338,0.0,0.0,52,0.00,,---,0.00,VWS V14.00,2013-11-03 01:55:00,
2013-11-02 21:00:00,49.8,35.2,30.18,NNW,338,0.0,0.0,57,0.00,,---,0.00,VWS V14.00,2013-11-03 02:00:00,
2013-11-02 21:05:00,49.5,33.6,30.18,NNW,338,0.0,0.0,54,0.00,,---,0.00,VWS V14.00,2013-11-03 02:05:00,
2013-11-02 21:10:00,49.1,32.7,30.18,NNW,338,0.0,0.0,53,0.00,,---,0.00,VWS V14.00,2013-11-03 02:10:00,
2013-11-02 21:15:00,48.8,32.4,30.19,NNW,338,0.0,0.0,53,0.00,,---,0.00,VWS V14.00,2013-11-03 02:15:00,
2013-11-02 21:20:00,48.5,32.6,30.19,NNW,338,0.0,0.0,54,0.00,,---,0.00,VWS V14.00,2013-11-03 02:20:00,
2013-11-02 21:25:00,48.2,32.3,30.18,NNW,338,0.0,0.0,54,0.00,,---,0.00,VWS V14.00,2013-11-03 02:25:00,
2013-11-02 21:30:00,47.9,33.0,30.19,NNW,338,0.0,0.0,56,0.00,,---,0.00,VWS V14.00,2013-11-03 02:30:00,
2013-11-02 21:35:00,47.7,34.1,30.19,NNW,338,0.0,0.0,59,0.00,,---,0.00,VWS V14.00,2013-11-03 02:35:00,
2013-11-02 21:40:00,47.5,35.5,30.19,NNW,338,0.0,0.0,63,0.00,,---,0.00,VWS V14.00,2013-11-03 02:40:00,
2013-11-02 21:45:00,47.2,34.5,30.18,NNW,338,0.0,0.0,61,0.00,,---,0.00,VWS V14.00,2013-11-03 02:45:00,
2013-11-02 21:50:00,46.9,33.8,30.18,NNW,338,0.0,0.0,60,0.00,,---,0.00,VWS V14.00,2013-11-03 02:50:00,
2013-11-02 21:55:00,46.6,33.9,30.18,NNW,338,0.0,0.0,61,0.00,,---,0.00,VWS V14.00,2013-11-03 02:55:00,
2013-11-02 22:00:00,46.1,34.6,30.18,NNW,338,0.0,0.0,64,0.00,,---,0.00,VWS V14.00,2013-11-03 03:00:00,
2013-11-02 22:05:00,45.6,34.1,30.18,NNW,338,0.0,0.0,64,0.00,,---,0.00,VWS V14.00,2013-11-03 03:05:00,
2013-11-02 22:10:00,45.3,33.9,30.18,NNW,338,0.0,0.0,64,0.00,,---,0.00,VWS V14.00,2013-11-03 03:10:00,
2013-11-02 22:15:00,45.0,33.6,30.18,NNW,338,0.0,0.0,64,0.00,,---,0.00,VWS V14.00,2013-11-03 03:15:00,
2013-11-02 22:20:00,44.8,33.4,30.18,NNW,338,0.0,0.0,64,0.00,,---,0.00,VWS V14.00,2013-11-03 03:20:00,
2013-11-02 22:25:00,44.6,33.6,30.18,NNW,338,0.0,0.0,65,0.00,,---,0.00,VWS V14.00,2013-11-03 03:25:00,
2013-11-02 22:30:00,44.3,35.2,30.18,NNW,338,0.0,0.0,70,0.00,,---,0.00,VWS V14.00,2013-11-03 03:30:00,
2013-11-02 22:35:00,44.2,35.0,30.19,NNW,338,0.0,0.0,70,0.00,,---,0.00,VWS V14.00,2013-11-03 03:35:00,
2013-11-02 22:40:00,43.9,34.4,30.18,NNW,338,0.0,0.0,69,0.00,,---,0.00,VWS V14.00,2013-11-03 03:40:00,
2013-11-02 22:45:00,43.7,34.2,30.18,NNW,338,0.0,0.0,69,0.00,,---,0.00,VWS V14.00,2013-11-03 03:45:00,
2013-11-02 22:50:00,43.5,34.0,30.18,NNW,338,0.0,0.0,69,0.00,,---,0.00,VWS V14.00,2013-11-03 03:50:00,
2013-11-02 22:55:00,43.3,34.2,30.19,NNW,338,0.0,0.0,70,0.00,,---,0.00,VWS V14.00,2013-11-03 03:55:00,
2013-11-02 23:00:00,43.2,34.1,30.18,NNW,338,0.0,0.0,70,0.00,,---,0.00,VWS V14.00,2013-11-03 04:00:00,
2013-11-02 23:05:00,43.0,33.9,30.18,NNW,338,0.0,0.0,70,0.00,,---,0.00,VWS V14.00,2013-11-03 04:05:00,
2013-11-02 23:10:00,42.9,34.5,30.19,NNW,338,0.0,0.0,72,0.00,,---,0.00,VWS V14.00,2013-11-03 04:10:00,
2013-11-02 23:15:00,42.7,34.3,30.19,NNW,338,0.0,1.0,72,0.00,,---,0.00,VWS V14.00,2013-11-03 04:15:00,
2013-11-02 23:20:00,42.5,34.1,30.19,NNW,338,0.0,0.0,72,0.00,,---,0.00,VWS V14.00,2013-11-03 04:20:00,
2013-11-02 23:25:00,42.2,33.8,30.19,NNW,338,0.0,0.0,72,0.00,,---,0.00,VWS V14.00,2013-11-03 04:25:00,
2013-11-02 23:30:00,42.1,34.1,30.19,NNW,338,0.0,0.0,73,0.00,,---,0.00,VWS V14.00,2013-11-03 04:30:00,
2013-11-02 23:35:00,42.0,34.0,30.19,NNW,338,0.0,0.0,73,0.00,,---,0.00,VWS V14.00,2013-11-03 04:35:00,
2013-11-02 23:40:00,41.7,34.4,30.19,NNW,338,0.0,0.0,75,0.00,,---,0.00,VWS V14.00,2013-11-03 04:40:00,
2013-11-02 23:45:00,41.5,34.5,30.19,NNW,338,0.0,0.0,76,0.00,,---,0.00,VWS V14.00,2013-11-03 04:45:00,
2013-11-02 23:50:00,41.3,34.7,30.20,NNW,338,0.0,0.0,77,0.00,,---,0.00,VWS V14.00,2013-11-03 04:50:00,
2013-11-02 23:55:00,41.1,34.8,30.20,NNW,338,0.0,0.0,78,0.00,,---,0.00,VWS V14.00,2013-11-03 04:55:00,